Weather History for KRIV - November, 2012

Change the Weather History Date:

Friday, November 23, 2012

  Actual Average Record
Temperature  
Mean Temperature 62 °F -  
Max Temperature 82 °F 67 °F 82 °F (2012)
Min Temperature 41 °F 40 °F 30 °F (2010)
Degree Days  
Heating Degree Days 4    
Growing Degree Days 12 (Base 50)    
Moisture  
Dew Point 32 °F    
Average Humidity 41    
Maximum Humidity 84    
Minimum Humidity 12    
Precipitation  
Precipitation 0.00 in - - ()
Sea Level Pressure  
Sea Level Pressure 30.12 in    
Wind  
Wind Speed 3 mph (NNW)    
Max Wind Speed 10 mph    
Max Gust Speed -    
Visibility 10 miles    
Events      
Averages and records for this station are not official NWS values.
T = Trace of Precipitation, MM = Missing Value Source: NWS Daily Summary

Daily Weather History Graph

Daily Weather History Graph

Search for Another Location

Airport or City:

Trip Planner

Search our weather history database for the weather conditions in past years. The results will help you decide how hot, cold, wet, or windy it might be!

Date:

Astronomy

Nov. 23, 2012 Rise Set
Actual Time 6:29 AM PST 4:41 PM PST
Civil Twilight 6:02 AM PST 5:08 PM PST
Nautical Twilight 5:31 AM PST 5:39 PM PST
Astronomical Twilight 5:01 AM PST 6:09 PM PST
Moon 1:49 PM PST (11/23) 2:03 AM PST (11/23)
Length of Visible Light 11h 06m
Length of Day
10h 12m
Waxing Gibbous, 80% of the Moon is Illuminated
Nov 23
Waxing Gibbous
Nov 28
Full
Dec 6
Last Quarter
Dec 13
New
Dec 19
First Quarter

Hourly Weather History & Observations

Time (PST) Temp. Windchill Dew Point Humidity Pressure Visibility Wind Dir Wind Speed Gust Speed Precip Events Conditions
12:58 AM 49.3 °F - 38.1 °F 65% 30.12 in 10.0 mi Calm Calm - N/A   Clear
1:58 AM 43.9 °F - 36.0 °F 74% 30.12 in 10.0 mi Calm Calm - N/A   Clear
2:58 AM 44.4 °F 42.9 °F 38.1 °F 79% 30.13 in 10.0 mi NW 3.5 mph - N/A   Clear
3:58 AM 43.5 °F - 37.8 °F 80% 30.13 in 10.0 mi SW 2.3 mph - N/A   Clear
4:58 AM 44.4 °F 42.9 °F 38.1 °F 79% 30.14 in 10.0 mi Variable 3.5 mph - N/A   Clear
5:58 AM 43.5 °F 41.9 °F 37.9 °F 81% 30.15 in 10.0 mi NNE 3.5 mph - N/A   Partly Cloudy
6:58 AM 41.7 °F - 37.2 °F 84% 30.17 in 10.0 mi WNW 1.2 mph - N/A   Partly Cloudy
7:58 AM 54.7 °F - 39.4 °F 56% 30.17 in 10.0 mi NNW 3.5 mph - N/A   Partly Cloudy
8:58 AM 67.3 °F - 36.7 °F 32% 30.17 in 10.0 mi NNE 2.3 mph - N/A   Partly Cloudy
9:58 AM 75.0 °F - 36.9 °F 25% 30.17 in 10.0 mi NE 4.6 mph - N/A   Partly Cloudy
10:58 AM 79.0 °F - 30.7 °F 17% 30.14 in 10.0 mi NNW 5.8 mph - N/A   Partly Cloudy
11:58 AM 81.0 °F - 32.0 °F 17% 30.13 in 10.0 mi NNE 4.6 mph - N/A   Partly Cloudy
12:58 PM 82.6 °F - 27.5 °F 13% 30.11 in 10.0 mi NW 5.8 mph - N/A   Partly Cloudy
1:58 PM 82.6 °F - 27.5 °F 13% 30.09 in 10.0 mi WNW 8.1 mph - N/A   Partly Cloudy
2:58 PM 82.0 °F - 28.4 °F 14% 30.08 in 10.0 mi WNW 8.1 mph - N/A   Partly Cloudy
3:58 PM 80.8 °F - 24.3 °F 12% 30.07 in 10.0 mi NE 10.4 mph - N/A   Partly Cloudy
4:58 PM 74.3 °F - 26.1 °F 17% 30.09 in 10.0 mi NNE 9.2 mph - N/A   Partly Cloudy
5:58 PM 71.2 °F - 26.8 °F 19% 30.10 in 10.0 mi Variable 2.3 mph - N/A   Partly Cloudy
6:58 PM 62.6 °F - 28.0 °F 27% 30.12 in 10.0 mi NNW 6.9 mph - N/A   Clear
7:58 PM 60.6 °F - 27.9 °F 29% 30.12 in 10.0 mi NNE 8.1 mph - N/A   Clear
8:58 PM 58.3 °F - 27.5 °F 31% 30.12 in 10.0 mi NNW 3.5 mph - N/A   Clear
9:58 PM 55.2 °F - 28.0 °F 35% 30.12 in 10.0 mi WNW 3.5 mph - N/A   Clear
10:58 PM 55.0 °F - 28.6 °F 36% 30.12 in 10.0 mi NNW 1.2 mph - N/A   Clear
11:58 PM 52.5 °F - 27.5 °F 38% 30.11 in 10.0 mi Calm Calm - N/A   Clear